Change the Weather History Date:

Friday, March 22, 2013

  Actual Average (KNHK) Record (KNHK)
Temperature  
Mean Temperature 35 °F -  
Max Temperature 44 °F 50 °F 73 °F (2007)
Min Temperature 26 °F 35 °F 17 °F (2002)
Degree Days  
Heating Degree Days 30    
Moisture  
Dew Point 15 °F    
Average Humidity 43    
Maximum Humidity 60    
Minimum Humidity 29    
Precipitation  
Precipitation 0.00 in - - ()
Sea Level Pressure  
Sea Level Pressure 29.95 in    
Wind  
Wind Speed 7 mph (West)    
Max Wind Speed 17 mph    
Max Gust Speed 25 mph    
Visibility 10 miles    
Events      
Averages and records for this station are not official NWS values.
T = Trace of Precipitation, MM = Missing Value Source: NWS Daily Summary

Daily Weather History Graph

Daily Weather History Graph

Search for Another Location

Airport or City:

Trip Planner

Search our weather history database for the weather conditions in past years. The results will help you decide how hot, cold, wet, or windy it might be!

Date:

Astronomy

Mar. 22, 2013 Rise Set
Actual Time 7:06 AM EDT 7:20 PM EDT
Civil Twilight 6:39 AM EDT 7:46 PM EDT
Nautical Twilight 6:09 AM EDT 8:17 PM EDT
Astronomical Twilight 5:37 AM EDT 8:49 PM EDT
Moon 2:48 PM EDT (3/22) 4:01 AM EDT (3/22)
Length of Visible Light 13h 06m
Length of Day
12h 13m
Waxing Gibbous, 77% of the Moon is Illuminated
Mar 22
Waxing Gibbous
Mar 27
Full
Apr 3
Last Quarter
Apr 10
New
Apr 18
First Quarter

Hourly Weather History & Observations

Time (EDT) Temp. Windchill Dew Point Humidity Pressure Visibility Wind Dir Wind Speed Gust Speed Precip Events Conditions
12:09 AM 30.2 °F 24.3 °F 8.6 °F 40% 29.92 in 10.0 mi WNW 5.8 mph - N/A   Clear
12:29 AM 30.2 °F 26.7 °F 8.6 °F 40% 29.92 in 10.0 mi West 3.5 mph - N/A   Clear
12:49 AM 30.2 °F 25.4 °F 8.6 °F 40% 29.92 in 10.0 mi West 4.6 mph - N/A   Clear
1:09 AM 28.4 °F 24.6 °F 8.6 °F 43% 29.92 in 10.0 mi West 3.5 mph - N/A   Clear
1:29 AM 28.4 °F 23.3 °F 10.4 °F 47% 29.92 in 10.0 mi West 4.6 mph - N/A   Clear
1:49 AM 28.4 °F 23.3 °F 10.4 °F 47% 29.92 in 10.0 mi WSW 4.6 mph - N/A   Clear
2:29 AM 28.4 °F 22.2 °F 12.2 °F 51% 29.92 in 10.0 mi West 5.8 mph - N/A   Clear
3:09 AM 28.4 °F 22.2 °F 12.2 °F 51% 29.93 in 10.0 mi West 5.8 mph - N/A   Clear
3:29 AM 28.4 °F 21.2 °F 12.2 °F 51% 29.93 in 10.0 mi West 6.9 mph - N/A   Clear
3:49 AM 28.4 °F 21.2 °F 12.2 °F 51% 29.92 in 10.0 mi West 6.9 mph - N/A   Clear
4:09 AM 28.4 °F 21.2 °F 14.0 °F 55% 29.92 in 10.0 mi WSW 6.9 mph - N/A   Clear
5:09 AM 28.4 °F 21.2 °F 14.0 °F 55% 29.92 in 10.0 mi WSW 6.9 mph - N/A   Clear
5:29 AM 28.4 °F 22.2 °F 14.0 °F 55% 29.93 in 10.0 mi WSW 5.8 mph - N/A   Clear
5:49 AM 28.4 °F 23.3 °F 14.0 °F 55% 29.93 in 10.0 mi WSW 4.6 mph - N/A   Clear
6:09 AM 28.4 °F 24.6 °F 14.0 °F 55% 29.93 in 10.0 mi WSW 3.5 mph - N/A   Clear
6:49 AM 28.4 °F 23.3 °F 14.0 °F 55% 29.95 in 10.0 mi WSW 4.6 mph - N/A   Clear
7:09 AM 26.6 °F 19.1 °F 14.0 °F 59% 29.95 in 10.0 mi West 6.9 mph - N/A   Clear
7:30 AM 28.4 °F 21.2 °F 14.0 °F 55% 29.96 in 10.0 mi WSW 6.9 mph - N/A   Clear
7:50 AM 28.4 °F 21.2 °F 14.0 °F 55% 29.97 in 10.0 mi WSW 6.9 mph - N/A   Clear
8:10 AM 30.2 °F 22.6 °F 14.0 °F 51% 29.98 in 10.0 mi WSW 8.1 mph - N/A   Clear
8:30 AM 32.0 °F 24.8 °F 14.0 °F 48% 29.98 in 10.0 mi WSW 8.1 mph - N/A   Clear
8:50 AM 32.0 °F 23.6 °F 14.0 °F 48% 29.98 in 10.0 mi West 10.4 mph - N/A   Clear
9:10 AM 32.0 °F 23.0 °F 14.0 °F 48% 29.99 in 10.0 mi West 11.5 mph - N/A   Clear
10:10 AM 35.6 °F 26.6 °F 14.0 °F 41% 29.98 in 10.0 mi West 13.8 mph - N/A   Clear
10:50 AM 35.6 °F 27.5 °F 12.2 °F 38% 29.98 in 10.0 mi WNW 11.5 mph 19.6 mph N/A   Clear
11:10 AM 37.4 °F 28.9 °F 14.0 °F 38% 29.98 in 10.0 mi West 13.8 mph 20.7 mph N/A   Clear
11:30 AM 37.4 °F 28.9 °F 12.2 °F 36% 29.97 in 10.0 mi WNW 13.8 mph 21.9 mph N/A   Clear
11:50 AM 37.4 °F 28.9 °F 12.2 °F 36% 29.97 in 10.0 mi West 13.8 mph 19.6 mph N/A   Clear
12:10 PM 39.2 °F 32.0 °F 12.2 °F 33% 29.97 in 10.0 mi WSW 11.5 mph 23.0 mph N/A   Scattered Clouds
12:30 PM 41.0 °F 33.1 °F 14.0 °F 33% 29.97 in 10.0 mi West 15.0 mph 23.0 mph N/A   Mostly Cloudy
12:50 PM 37.4 °F 30.3 °F 14.0 °F 38% 29.97 in 10.0 mi West 10.4 mph 17.3 mph N/A   Overcast
1:10 PM 41.0 °F 34.7 °F 14.0 °F 33% 29.96 in 10.0 mi West 10.4 mph - N/A   Mostly Cloudy
1:30 PM 41.0 °F 33.1 °F 14.0 °F 33% 29.95 in 10.0 mi WSW 15.0 mph 25.3 mph N/A   Mostly Cloudy
1:50 PM 39.2 °F 32.5 °F 12.2 °F 33% 29.95 in 10.0 mi West 10.4 mph 18.4 mph N/A   Mostly Cloudy
2:10 PM 41.0 °F 32.8 °F 14.0 °F 33% 29.94 in 10.0 mi SW 16.1 mph 24.2 mph N/A   Scattered Clouds
2:30 PM 42.8 °F 35.4 °F 14.0 °F 31% 29.93 in 10.0 mi West 15.0 mph 18.4 mph N/A   Clear
2:50 PM 42.8 °F 34.8 °F 14.0 °F 31% 29.92 in 10.0 mi West 17.3 mph 21.9 mph N/A   Clear
3:10 PM 42.8 °F 35.1 °F 14.0 °F 31% 29.92 in 10.0 mi West 16.1 mph 23.0 mph N/A   Clear
3:51 PM 44.6 °F 40.2 °F 14.0 °F 29% 29.91 in 10.0 mi WSW 8.1 mph 20.7 mph N/A   Clear
4:11 PM 44.6 °F 38.8 °F 14.0 °F 29% 29.91 in 10.0 mi West 11.5 mph 19.6 mph N/A   Clear
4:31 PM 44.6 °F 37.4 °F 14.0 °F 29% 29.91 in 10.0 mi West 16.1 mph 20.7 mph N/A   Clear
5:11 PM 44.6 °F 38.4 °F 14.0 °F 29% 29.91 in 10.0 mi WSW 12.7 mph - N/A   Clear
5:31 PM 44.6 °F 38.1 °F 14.0 °F 29% 29.91 in 10.0 mi SW 13.8 mph - N/A   Scattered Clouds
5:51 PM 44.6 °F 40.7 °F 14.0 °F 29% 29.91 in 10.0 mi WSW 6.9 mph - N/A   Clear
6:11 PM 44.6 °F 40.7 °F 14.0 °F 29% 29.92 in 10.0 mi West 6.9 mph - N/A   Clear
6:31 PM 44.6 °F 40.7 °F 14.0 °F 29% 29.92 in 10.0 mi West 6.9 mph - N/A   Clear
6:51 PM 44.6 °F 40.7 °F 15.8 °F 31% 29.93 in 10.0 mi WSW 6.9 mph - N/A   Clear
7:11 PM 44.6 °F - 15.8 °F 31% 29.94 in 10.0 mi Calm Calm - N/A   Clear
7:31 PM 41.0 °F - 17.6 °F 39% 29.94 in 10.0 mi Calm Calm - N/A   Clear
7:51 PM 39.2 °F - 19.4 °F 45% 29.95 in 10.0 mi Calm Calm - N/A   Clear
8:11 PM 37.4 °F - 19.4 °F 48% 29.95 in 10.0 mi Calm Calm - N/A   Clear
8:31 PM 35.6 °F - 19.4 °F 52% 29.96 in 10.0 mi Calm Calm - N/A   Clear
8:51 PM 37.4 °F - 21.2 °F 52% 29.97 in 10.0 mi Calm Calm - N/A   Clear
9:11 PM 35.6 °F - 19.4 °F 52% 29.97 in 10.0 mi Calm Calm - N/A   Clear
9:31 PM 37.4 °F - 19.4 °F 48% 29.98 in 10.0 mi Calm Calm - N/A   Clear
9:51 PM 37.4 °F - 19.4 °F 48% 29.99 in 10.0 mi Calm Calm - N/A   Clear
10:11 PM 35.6 °F - 19.4 °F 52% 30.00 in 10.0 mi Calm Calm - N/A   Clear
10:31 PM 33.8 °F - 19.4 °F 56% 30.00 in 10.0 mi Calm Calm - N/A   Clear
10:51 PM 33.8 °F - 21.2 °F 60% 30.00 in 10.0 mi Calm Calm - N/A   Clear
11:11 PM 33.8 °F - 19.4 °F 56% 30.01 in 10.0 mi Calm Calm - N/A   Clear
11:31 PM 33.8 °F - 19.4 °F 56% 30.01 in 10.0 mi Calm Calm - N/A   Clear
11:51 PM 33.8 °F - 19.4 °F 56% 30.01 in 10.0 mi Calm Calm - N/A   Clear